Location: The Saddle
(36.8333°N, 80.3417°W)
Time: 00:40:28
(UTC-04:00)

Transit 2A Rocket - Visible Passes

Search period start: 15 September 2024 00:00
Search period end: 25 September 2024 00:00
Orbit: 582 x 909 km, 66.7° (Epoch: 14 September)

Date Brightness Start Highest point End Pass type
(mag) Time Alt. Az. Time Alt. Az. Time Alt. Az.
21 Sep 8.1 06:30:20 10° NNE 06:31:21 10° NE 06:32:21 10° NE visible
23 Sep 7.6 06:41:38 10° N 06:45:51 21° NE 06:49:48 10° E visible
24 Sep 8.0 05:58:25 10° NNE 06:00:56 13° NE 06:03:20 10° ENE visible
